UWE-4 (43880 NORAD) Tracking and Keplerian Element Data

This shows tracking and keplerian element data for the satellite.

Feedback or suggestion? Click here.




ElementValue
Catalog43880
NameUWE-4
Epoch Orbit1894
Epoch Day136.19225551
Epoch Year2019
RAAN44.7504
Inclination97.7213
Eccentricity0.0013248
Argument of Perigee132.1612
Mean Anonmoly228.0737
Mean Motion14.9620538
Decay Rate-7E-07
L11 43880U 18111E 19136.19225551 -.00000070 00000-0 -10523-5 0 9990
L22 43880 97.7213 44.7504 0013248 132.1612 228.0737 14.96205380 18941

Live tracking and technical data element details for UWE-4 (NORAD 43880). UWE-4 can be tracked NOW for your location showing map with azimuth and elevation plus other details from your city location.

Track the satellite on the map from your city or location and see movement details for azimuth, elevation, latitude, longitude, range, height, and movement on the map or in text.







IsCatalogInMostPopularTable: catalog: 43880, numindb: 45
Update: records affected: 1



GetName: 43880 UWE-4

Hit Count: updated at: Thu, 23 May 2019 14:49:36 GMT